sat.trackr.live / text

‹ back to catalog

SATELIOT_4

NORAD 60537 · 2024-149BX

PAYLOAD ACTIVE UNKNOWN

§ Identity

Operator
Country
SPN
Launch date
2024-08-16
Launch site
AFWTR
Launch vehicle
Mass (kg)
RCS (m²)

External: N2YO · Heavens-Above · Gunter

§ Orbital elements

Epoch: 2026-05-25T04:06:59.785920Z

Period
96.22 min
Inclination
97.6744°
Eccentricity
0.0003657
Mean motion
14.96575128 rev/d
Perigee alt
574.9 km
Apogee alt
580.0 km
Semi-major
6,955.6 km
B*
1.4521e-4
RAAN
220.0918°
Arg perigee
102.7900°
Mean anomaly
257.3731°
Rev number
9,653

§ Raw data

SATELIOT_41 60537U 24149BX  26145.17152530  .00001596  00000+0  14521-3 0  99992 60537  97.6744 220.0918 0003657 102.7900 257.3731 14.96575128 96531

JSON: /api/v1/satellites/60537 · /tle

For live sub-satellite position, see the globe view (requires WebGL).

§ Visibility from observer

Set your observer location to see the next 7 days of passes ≥ 10°. The values pass through the URL so the page stays shareable.

No JS? Fill the form by hand. The geolocation button needs JavaScript.